LEMUR-2-DAISY-HARPER (43889 NORAD) Tracking and Keplerian Element Data

This shows tracking and keplerian element data for the satellite.

Feedback or suggestion? Click here.




ElementValue
Catalog43889
NameLEMUR-2-DAISY-HARPER
Epoch Orbit308
Epoch Day16.87092161
Epoch Year2019
RAAN287.054
Inclination97.7295
Eccentricity0.0011659
Argument of Perigee165.735
Mean Anonmoly194.4203
Mean Motion14.967376
Decay Rate4.05E-06
L11 43889U 18111P 19016.87092161 .00000405 00000-0 40512-4 0 9990
L22 43889 97.7295 287.0540 0011659 165.7350 194.4203 14.96737600 3085

Live tracking and technical data element details for LEMUR-2-DAISY-HARPER (NORAD 43889). LEMUR-2-DAISY-HARPER can be tracked NOW for your location showing map with azimuth and elevation plus other details from your city location.

Track the satellite on the map from your city or location and see movement details for azimuth, elevation, latitude, longitude, range, height, and movement on the map or in text.







IsCatalogInMostPopularTable: catalog: 43889, numindb: 19
Update: records affected: 1



GetName: 43889 LEMUR-2-DAISY-HARPER

Hit Count: updated at: Thu, 17 Jan 2019 14:39:26 GMT